DLH009 EDDH-EBBR

Flight info

Callsign DLH009
Flight time 0h 48m
Altitude 36000
Route WSN5G/33 WSN N125 SILQI N872 LILSI/N0441F350 Z310 WOODY
Aircraft A320/M-SDE3FGHIRWY/LB1

Departure

Time 2026-05-07 18:23
Airport Hamburg Helmut Schmidt Airport (EDDH)

Arrival

Time 2026-05-07 19:11
Airport Brussels Airport (EBBR)
Time Latitude Longitude Altitude Speed Heading
2026-05-07 17:13 53.63094 10.00005 34 ft 0 kts 140°
2026-05-07 18:05 53.63099 10.00000 34 ft 2 kts 140°
2026-05-07 18:06 53.63110 9.99983 33 ft 2 kts 140°
2026-05-07 18:06 53.63122 9.99967 33 ft 2 kts 152°
2026-05-07 18:06 53.63137 9.99962 32 ft 2 kts 190°
2026-05-07 18:06 53.63150 9.99972 32 ft 1 kts 223°
2026-05-07 18:07 53.63154 9.99980 32 ft 1 kts 233°
2026-05-07 18:07 53.63155 9.99984 32 ft 0 kts 230°
2026-05-07 18:08 53.63155 9.99983 32 ft 0 kts 230°
2026-05-07 18:08 53.63142 9.99956 32 ft 4 kts 230°
2026-05-07 18:09 53.63114 9.99901 31 ft 6 kts 228°
2026-05-07 18:09 53.63081 9.99892 31 ft 8 kts 162°
2026-05-07 18:09 53.63029 9.99931 33 ft 7 kts 153°
2026-05-07 18:09 53.62990 9.99965 34 ft 4 kts 152°
2026-05-07 18:10 53.62967 9.99985 35 ft 3 kts 154°
2026-05-07 18:10 53.62944 9.99995 35 ft 3 kts 178°
2026-05-07 18:10 53.62930 9.99990 35 ft 0 kts 203°
2026-05-07 18:12 53.62925 9.99986 35 ft 0 kts 210°
2026-05-07 18:15 53.62919 9.99978 35 ft 4 kts 221°
2026-05-07 18:16 53.62898 9.99927 34 ft 0 kts 240°
2026-05-07 18:21 53.62888 9.99898 33 ft 6 kts 241°
2026-05-07 18:21 53.62863 9.99808 32 ft 9 kts 259°
2026-05-07 18:21 53.62896 9.99721 31 ft 0 kts 329°
2026-05-07 18:22 53.62911 9.99706 31 ft 14 kts 331°
2026-05-07 18:22 53.63293 9.99374 32 ft 110 kts 333°
2026-05-07 18:23 53.64210 9.98603 230 ft 173 kts 336°
2026-05-07 18:23 53.65319 9.97641 1059 ft 190 kts 336°
2026-05-07 18:23 53.66509 9.96604 2085 ft 201 kts 335°
2026-05-07 18:23 53.67782 9.95515 2876 ft 217 kts 338°
2026-05-07 18:24 53.69163 9.94354 3755 ft 226 kts 337°
2026-05-07 18:24 53.70510 9.93065 4651 ft 232 kts 321°
2026-05-07 18:24 53.71355 9.90750 5615 ft 241 kts 284°
2026-05-07 18:24 53.71296 9.87931 6356 ft 257 kts 253°
2026-05-07 18:25 53.70642 9.84675 7056 ft 276 kts 251°
2026-05-07 18:25 53.69904 9.81036 8003 ft 287 kts 252°
2026-05-07 18:25 53.69146 9.77296 8950 ft 287 kts 252°
2026-05-07 18:25 53.68397 9.73564 9448 ft 288 kts 252°
2026-05-07 18:26 53.67640 9.69773 9910 ft 290 kts 252°
2026-05-07 18:26 53.66880 9.65935 10568 ft 300 kts 252°
2026-05-07 18:26 53.66073 9.61852 11090 ft 323 kts 252°
2026-05-07 18:26 53.64997 9.57171 11957 ft 337 kts 242°
2026-05-07 18:27 53.63329 9.53231 12928 ft 343 kts 233°
2026-05-07 18:27 53.61652 9.49471 13783 ft 348 kts 234°
2026-05-07 18:27 53.60159 9.46037 14500 ft 352 kts 235°
2026-05-07 18:27 53.58740 9.42724 15250 ft 355 kts 235°
2026-05-07 18:28 53.57303 9.39359 15962 ft 358 kts 235°
2026-05-07 18:28 53.55832 9.35919 16630 ft 362 kts 235°
2026-05-07 18:28 53.54377 9.32526 17288 ft 365 kts 234°
2026-05-07 18:28 53.52883 9.29050 17911 ft 368 kts 234°
2026-05-07 18:29 53.51383 9.25565 18538 ft 371 kts 234°
2026-05-07 18:29 53.49883 9.22084 19137 ft 374 kts 234°
2026-05-07 18:29 53.48349 9.18526 19731 ft 377 kts 234°
2026-05-07 18:29 53.46824 9.14993 20303 ft 380 kts 235°
2026-05-07 18:30 53.45273 9.11397 20864 ft 383 kts 235°
2026-05-07 18:30 53.43704 9.07759 21408 ft 386 kts 235°
2026-05-07 18:30 53.41905 9.03578 22022 ft 390 kts 235°
2026-05-07 18:30 53.40049 8.99254 22604 ft 394 kts 235°
2026-05-07 18:31 53.38165 8.94839 23213 ft 396 kts 236°
2026-05-07 18:31 53.36269 8.90368 23820 ft 399 kts 235°
2026-05-07 18:31 53.34560 8.85817 24426 ft 399 kts 245°
2026-05-07 18:31 53.33463 8.81517 24856 ft 402 kts 249°
2026-05-07 18:32 53.32412 8.77195 25292 ft 405 kts 249°
2026-05-07 18:32 53.31369 8.72792 25739 ft 408 kts 250°
2026-05-07 18:32 53.30357 8.68373 26143 ft 411 kts 250°
2026-05-07 18:32 53.29370 8.63954 26591 ft 412 kts 251°
2026-05-07 18:33 53.28390 8.59438 27027 ft 414 kts 251°
2026-05-07 18:33 53.27420 8.54940 27411 ft 417 kts 251°
2026-05-07 18:33 53.26358 8.49987 27848 ft 419 kts 252°
2026-05-07 18:33 53.25324 8.44477 28297 ft 421 kts 254°
2026-05-07 18:34 53.24315 8.39031 28738 ft 424 kts 254°
2026-05-07 18:34 53.23262 8.33408 29153 ft 426 kts 253°
2026-05-07 18:34 53.22078 8.27114 29633 ft 429 kts 253°
2026-05-07 18:34 53.21011 8.21478 30028 ft 431 kts 252°
2026-05-07 18:35 53.19949 8.15883 30437 ft 433 kts 252°
2026-05-07 18:35 53.18841 8.10065 30821 ft 435 kts 253°
2026-05-07 18:35 53.17703 8.03994 31171 ft 438 kts 252°
2026-05-07 18:35 53.16684 7.98567 31480 ft 440 kts 252°
2026-05-07 18:36 53.15718 7.93447 31742 ft 442 kts 252°
2026-05-07 18:36 53.14774 7.88461 31998 ft 444 kts 252°
2026-05-07 18:36 53.13856 7.83626 32311 ft 444 kts 252°
2026-05-07 18:36 53.12922 7.78724 32620 ft 444 kts 252°
2026-05-07 18:37 53.11991 7.73851 32950 ft 444 kts 252°
2026-05-07 18:37 53.11057 7.68971 33237 ft 444 kts 252°
2026-05-07 18:37 53.10120 7.64096 33529 ft 444 kts 252°
2026-05-07 18:37 53.09180 7.59224 33818 ft 444 kts 252°
2026-05-07 18:38 53.08235 7.54351 34088 ft 445 kts 252°
2026-05-07 18:38 53.07295 7.49505 34335 ft 445 kts 252°
2026-05-07 18:38 53.06344 7.44615 34587 ft 446 kts 252°
2026-05-07 18:38 53.05397 7.39757 34824 ft 446 kts 252°
2026-05-07 18:39 53.04387 7.34880 35036 ft 446 kts 246°
2026-05-07 18:39 53.02974 7.30299 35243 ft 445 kts 237°
2026-05-07 18:39 53.01165 7.26194 35452 ft 444 kts 231°
2026-05-07 18:39 52.99205 7.22248 35679 ft 443 kts 229°
2026-05-07 18:40 52.97223 7.18418 35890 ft 443 kts 228°
2026-05-07 18:40 52.95200 7.14633 36081 ft 443 kts 228°
2026-05-07 18:40 52.93161 7.10814 36144 ft 443 kts 229°
2026-05-07 18:41 52.89117 7.03156 36139 ft 441 kts 229°
2026-05-07 18:41 52.84410 6.94242 36134 ft 441 kts 229°
2026-05-07 18:42 52.79449 6.84886 36143 ft 441 kts 229°
2026-05-07 18:42 52.75002 6.76537 36141 ft 441 kts 229°
2026-05-07 18:43 52.70945 6.68942 36139 ft 441 kts 229°
2026-05-07 18:43 52.66902 6.61383 36140 ft 440 kts 229°
2026-05-07 18:44 52.62866 6.53865 36142 ft 440 kts 229°
2026-05-07 18:44 52.58808 6.46349 36145 ft 440 kts 228°
2026-05-07 18:45 52.54762 6.38880 36145 ft 439 kts 229°
2026-05-07 18:45 52.50518 6.31066 36147 ft 439 kts 227°
2026-05-07 18:46 52.45702 6.22227 36150 ft 438 kts 228°
2026-05-07 18:46 52.40927 6.13493 36153 ft 438 kts 228°
2026-05-07 18:47 52.36382 6.05210 36153 ft 437 kts 228°
2026-05-07 18:47 52.32322 5.97835 36148 ft 437 kts 228°
2026-05-07 18:48 52.28259 5.90486 36103 ft 435 kts 228°
2026-05-07 18:48 52.26272 5.86890 35806 ft 433 kts 228°
2026-05-07 18:48 52.24244 5.83225 35246 ft 435 kts 228°
2026-05-07 18:48 52.22229 5.79593 34650 ft 438 kts 228°
2026-05-07 18:49 52.20207 5.75952 34028 ft 439 kts 228°
2026-05-07 18:49 52.18164 5.72280 33422 ft 438 kts 228°
2026-05-07 18:49 52.16114 5.68599 32942 ft 435 kts 228°
2026-05-07 18:49 52.14030 5.64863 32499 ft 430 kts 228°
2026-05-07 18:50 52.11636 5.60579 31976 ft 424 kts 228°
2026-05-07 18:50 52.09257 5.56330 31440 ft 419 kts 228°
2026-05-07 18:50 52.06900 5.52128 30880 ft 414 kts 228°
2026-05-07 18:50 52.04606 5.48043 30290 ft 409 kts 228°
2026-05-07 18:51 52.02470 5.44248 29699 ft 406 kts 228°
2026-05-07 18:51 52.00590 5.40912 29144 ft 403 kts 228°
2026-05-07 18:51 51.98701 5.37569 28576 ft 401 kts 228°
2026-05-07 18:51 51.96823 5.34251 28027 ft 398 kts 227°
2026-05-07 18:52 51.94852 5.30769 27438 ft 395 kts 227°
2026-05-07 18:52 51.92692 5.26959 26819 ft 391 kts 227°
2026-05-07 18:52 51.90545 5.23176 26192 ft 388 kts 227°
2026-05-07 18:52 51.88514 5.19602 25595 ft 385 kts 227°
2026-05-07 18:53 51.86340 5.15783 24939 ft 381 kts 227°
2026-05-07 18:53 51.84216 5.12055 24318 ft 378 kts 228°
2026-05-07 18:53 51.82104 5.08346 23689 ft 375 kts 228°
2026-05-07 18:53 51.80066 5.04777 23083 ft 371 kts 228°
2026-05-07 18:54 51.78025 5.01212 22470 ft 368 kts 228°
2026-05-07 18:54 51.76002 4.97683 21875 ft 366 kts 228°
2026-05-07 18:54 51.73968 4.94139 21497 ft 367 kts 227°
2026-05-07 18:54 51.71958 4.90654 21258 ft 365 kts 228°
2026-05-07 18:55 51.69948 4.87164 20864 ft 360 kts 228°
2026-05-07 18:55 51.67954 4.83705 20253 ft 357 kts 228°
2026-05-07 18:55 51.65973 4.80271 19620 ft 357 kts 228°
2026-05-07 18:55 51.64092 4.77014 18949 ft 358 kts 228°
2026-05-07 18:56 51.62395 4.74078 18194 ft 363 kts 228°
2026-05-07 18:56 51.60685 4.71121 17298 ft 367 kts 228°
2026-05-07 18:56 51.58947 4.68116 16419 ft 367 kts 228°
2026-05-07 18:56 51.57217 4.65137 15680 ft 361 kts 227°
2026-05-07 18:57 51.55546 4.62261 15279 ft 347 kts 227°
2026-05-07 18:57 51.53939 4.59503 15122 ft 332 kts 227°
2026-05-07 18:57 51.52361 4.56795 15086 ft 333 kts 227°
2026-05-07 18:57 51.50317 4.54143 15093 ft 339 kts 207°
2026-05-07 18:58 51.47745 4.52921 15119 ft 340 kts 191°
2026-05-07 18:58 51.45416 4.52313 15002 ft 334 kts 190°
2026-05-07 18:58 51.43129 4.51748 14545 ft 332 kts 190°
2026-05-07 18:58 51.40878 4.51184 14037 ft 332 kts 190°
2026-05-07 18:59 51.38585 4.50601 13547 ft 330 kts 190°
2026-05-07 18:59 51.36348 4.50028 13044 ft 330 kts 190°
2026-05-07 18:59 51.34087 4.49444 12454 ft 332 kts 190°
2026-05-07 18:59 51.31798 4.48851 11845 ft 333 kts 190°
2026-05-07 19:00 51.29331 4.48209 11198 ft 335 kts 190°
2026-05-07 19:00 51.26793 4.47545 10631 ft 332 kts 190°
2026-05-07 19:00 51.24191 4.46862 10096 ft 329 kts 190°
2026-05-07 19:00 51.21685 4.46201 9596 ft 322 kts 190°
2026-05-07 19:01 51.19323 4.45580 9125 ft 311 kts 188°
2026-05-07 19:01 51.17043 4.45802 8614 ft 303 kts 162°
2026-05-07 19:01 51.15167 4.47578 8289 ft 289 kts 134°
2026-05-07 19:01 51.14142 4.50225 8145 ft 278 kts 107°
2026-05-07 19:02 51.13835 4.53217 8098 ft 278 kts 96°
2026-05-07 19:02 51.13679 4.56291 8073 ft 279 kts 95°
2026-05-07 19:02 51.13533 4.59375 8069 ft 280 kts 95°
2026-05-07 19:02 51.13382 4.62467 8065 ft 279 kts 94°
2026-05-07 19:03 51.13220 4.65734 7934 ft 276 kts 95°
2026-05-07 19:03 51.13047 4.69087 7565 ft 274 kts 95°
2026-05-07 19:03 51.12883 4.72185 7196 ft 273 kts 95°
2026-05-07 19:03 51.12703 4.75476 6830 ft 271 kts 95°
2026-05-07 19:04 51.12538 4.78458 6510 ft 269 kts 95°
2026-05-07 19:04 51.12312 4.81350 6289 ft 262 kts 106°
2026-05-07 19:04 51.11475 4.83859 6087 ft 253 kts 128°
2026-05-07 19:04 51.10381 4.85939 5925 ft 242 kts 130°
2026-05-07 19:05 51.09278 4.87941 5692 ft 237 kts 130°
2026-05-07 19:05 51.08199 4.89854 5487 ft 234 kts 136°
2026-05-07 19:05 51.06785 4.91104 5185 ft 237 kts 168°
2026-05-07 19:05 51.05147 4.90994 4905 ft 238 kts 195°
2026-05-07 19:06 51.03634 4.89965 4643 ft 239 kts 209°
2026-05-07 19:06 51.01250 4.86272 4117 ft 239 kts 230°
2026-05-07 19:06 51.00142 4.84134 3862 ft 240 kts 230°
2026-05-07 19:07 50.99034 4.82001 3415 ft 249 kts 230°
2026-05-07 19:07 50.97862 4.79755 3123 ft 246 kts 230°
2026-05-07 19:07 50.96747 4.77626 3037 ft 233 kts 230°
2026-05-07 19:07 50.95631 4.75474 3011 ft 219 kts 234°
2026-05-07 19:08 50.94812 4.73180 2895 ft 209 kts 248°
2026-05-07 19:08 50.94207 4.70809 2642 ft 192 kts 250°
2026-05-07 19:08 50.93701 4.68707 2368 ft 192 kts 250°
2026-05-07 19:08 50.93243 4.66774 2052 ft 184 kts 251°
2026-05-07 19:09 50.92794 4.64840 1788 ft 173 kts 251°
2026-05-07 19:09 50.92366 4.62992 1597 ft 161 kts 251°
2026-05-07 19:09 50.91965 4.61285 1397 ft 148 kts 251°
2026-05-07 19:09 50.91594 4.59699 1158 ft 150 kts 249°
2026-05-07 19:10 50.91210 4.58062 946 ft 149 kts 251°
2026-05-07 19:10 50.90862 4.56535 714 ft 144 kts 252°
2026-05-07 19:10 50.90511 4.55038 533 ft 139 kts 252°
2026-05-07 19:10 50.90187 4.53614 348 ft 135 kts 252°
2026-05-07 19:11 50.89869 4.52232 197 ft 132 kts 252°
2026-05-07 19:11 50.89576 4.50975 154 ft 101 kts 252°
2026-05-07 19:11 50.89393 4.50177 156 ft 42 kts 249°
2026-05-07 19:11 50.89335 4.49889 157 ft 17 kts 261°
2026-05-07 19:12 50.89362 4.49685 156 ft 20 kts 304°
2026-05-07 19:12 50.89471 4.49459 152 ft 29 kts 307°
2026-05-07 19:12 50.89529 4.49333 154 ft 9 kts 307°
2026-05-07 19:12 50.89578 4.49248 155 ft 8 kts 342°
2026-05-07 19:13 50.89664 4.49270 155 ft 15 kts 13°
2026-05-07 19:13 50.89793 4.49321 154 ft 22 kts 15°
2026-05-07 19:13 50.89863 4.49349 153 ft 1 kts 13°
2026-05-07 19:14 50.89874 4.49345 153 ft 5 kts 342°
2026-05-07 19:15 50.89920 4.49308 154 ft 7 kts 328°
2026-05-07 19:15 50.89978 4.49283 154 ft 10 kts 10°
2026-05-07 19:15 50.90068 4.49317 151 ft 15 kts 15°
2026-05-07 19:15 50.90189 4.49364 146 ft 10 kts 14°
2026-05-07 19:16 50.90251 4.49390 143 ft 0 kts 15°
2026-05-07 19:16 50.90255 4.49391 142 ft 0 kts 15°
2026-05-07 19:17 50.90256 4.49392 142 ft 1 kts 15°
2026-05-07 19:17 50.90283 4.49403 141 ft 4 kts 15°
2026-05-07 19:17 50.90317 4.49396 140 ft 5 kts 321°
2026-05-07 19:18 50.90331 4.49338 141 ft 5 kts 258°
2026-05-07 19:18 50.90309 4.49257 141 ft 9 kts 246°
2026-05-07 19:18 50.90279 4.49155 142 ft 10 kts 246°
2026-05-07 19:18 50.90247 4.49045 140 ft 10 kts 246°
2026-05-07 19:19 50.90222 4.48949 140 ft 9 kts 252°
2026-05-07 19:19 50.90213 4.48824 137 ft 11 kts 273°
2026-05-07 19:19 50.90212 4.48673 132 ft 16 kts 257°
2026-05-07 19:19 50.90174 4.48531 131 ft 9 kts 244°
2026-05-07 19:20 50.90145 4.48430 131 ft 10 kts 245°
2026-05-07 19:20 50.90128 4.48365 131 ft 5 kts 262°
2026-05-07 19:20 50.90146 4.48332 129 ft 5 kts 333°
2026-05-07 19:20 50.90169 4.48313 127 ft 3 kts 335°
2026-05-07 19:21 50.90190 4.48299 126 ft 0 kts 336°